SAS2689 ESSA-LIMC

Flight info

Callsign SAS2689
Flight time N/A
Altitude 34000
Route NOSLI N850 ABAMA DCT MAKEL DCT TOLGI DCT BOMBI DCT GIGET DCT ABUKA DCT KRH DCT NATOR/N0449F350 DCT TRA DCT RIPUS DCT GERSA DCT SOSON DCT DEGAD Z424 BASGO/N0449F290 Z424 AKASU/N0382F190 Z424 RIXUV
Aircraft A320/M-SDE3FGHIRWY/LB1

Departure

Time 2026-05-07 15:58
Airport Stockholm-Arlanda Airport (ESSA)

Arrival

Time N/A
Airport Milan Malpensa International Airport (LIMC)
Time Latitude Longitude Altitude Speed Heading
2026-05-07 15:19 59.65346 17.93818 112 ft 0 kts 256°
2026-05-07 15:44 59.65347 17.93828 112 ft 4 kts 256°
2026-05-07 15:45 59.65352 17.93869 110 ft 4 kts 256°
2026-05-07 15:45 59.65361 17.93907 112 ft 2 kts 227°
2026-05-07 15:45 59.65376 17.93939 113 ft 4 kts 230°
2026-05-07 15:45 59.65383 17.93980 113 ft 3 kts 285°
2026-05-07 15:46 59.65377 17.94018 114 ft 0 kts 286°
2026-05-07 15:49 59.65393 17.93966 113 ft 10 kts 313°
2026-05-07 15:49 59.65445 17.93930 113 ft 7 kts 345°
2026-05-07 15:49 59.65487 17.93908 113 ft 6 kts 344°
2026-05-07 15:50 59.65538 17.93881 112 ft 6 kts 346°
2026-05-07 15:50 59.65568 17.93867 113 ft 5 kts 345°
2026-05-07 15:50 59.65592 17.93808 113 ft 7 kts 279°
2026-05-07 15:50 59.65582 17.93699 113 ft 9 kts 256°
2026-05-07 15:51 59.65564 17.93555 112 ft 12 kts 256°
2026-05-07 15:51 59.65539 17.93357 111 ft 16 kts 256°
2026-05-07 15:51 59.65511 17.93128 111 ft 18 kts 255°
2026-05-07 15:51 59.65471 17.92885 111 ft 19 kts 249°
2026-05-07 15:52 59.65432 17.92672 111 ft 15 kts 274°
2026-05-07 15:52 59.65522 17.92536 105 ft 20 kts 342°
2026-05-07 15:52 59.65660 17.92463 103 ft 21 kts 346°
2026-05-07 15:52 59.65783 17.92426 105 ft 17 kts 11°
2026-05-07 15:53 59.65900 17.92469 108 ft 17 kts 11°
2026-05-07 15:53 59.66020 17.92514 110 ft 18 kts 11°
2026-05-07 15:53 59.66143 17.92558 112 ft 18 kts 10°
2026-05-07 15:53 59.66260 17.92599 116 ft 15 kts 10°
2026-05-07 15:54 59.66347 17.92632 117 ft 12 kts 11°
2026-05-07 15:54 59.66422 17.92657 120 ft 9 kts
2026-05-07 15:54 59.66483 17.92643 119 ft 9 kts 343°
2026-05-07 15:54 59.66539 17.92603 120 ft 5 kts 340°
2026-05-07 15:55 59.66543 17.92601 124 ft 0 kts 340°
2026-05-07 15:55 59.66544 17.92600 124 ft 0 kts 340°
2026-05-07 15:56 59.66561 17.92587 123 ft 6 kts 340°
2026-05-07 15:56 59.66614 17.92523 132 ft 10 kts 302°
2026-05-07 15:56 59.66600 17.92379 123 ft 11 kts 228°
2026-05-07 15:56 59.66559 17.92347 121 ft 1 kts 191°
2026-05-07 15:57 59.66558 17.92347 123 ft 0 kts 191°
2026-05-07 15:57 59.66552 17.92345 121 ft 6 kts 191°
2026-05-07 15:57 59.66375 17.92281 119 ft 53 kts 191°
2026-05-07 15:57 59.65798 17.92072 111 ft 113 kts 190°
2026-05-07 15:58 59.64862 17.91732 107 ft 159 kts 190°
2026-05-07 15:58 59.63724 17.91340 532 ft 164 kts 189°
2026-05-07 15:58 59.62597 17.90937 1137 ft 165 kts 189°
2026-05-07 15:58 59.61481 17.90362 1627 ft 168 kts 206°
2026-05-07 15:59 59.60572 17.88985 2165 ft 163 kts 228°
2026-05-07 15:59 59.59980 17.87115 2684 ft 160 kts 246°
2026-05-07 15:59 59.59557 17.85026 2972 ft 173 kts 243°
2026-05-07 15:59 59.59023 17.82778 3168 ft 193 kts 242°
2026-05-07 16:00 59.58407 17.80293 3396 ft 213 kts 242°
2026-05-07 16:00 59.57687 17.77554 3668 ft 236 kts 241°
2026-05-07 16:00 59.56796 17.74674 4051 ft 256 kts 227°
2026-05-07 16:00 59.55371 17.72535 4724 ft 262 kts 206°
2026-05-07 16:01 59.53720 17.70973 5518 ft 265 kts 206°
2026-05-07 16:01 59.52055 17.69356 6282 ft 269 kts 206°
2026-05-07 16:01 59.50371 17.67706 7052 ft 272 kts 206°
2026-05-07 16:01 59.48670 17.66039 7840 ft 273 kts 207°
2026-05-07 16:02 59.46961 17.64352 8597 ft 277 kts 207°
2026-05-07 16:02 59.45227 17.62635 9279 ft 281 kts 207°
2026-05-07 16:02 59.43471 17.60890 9993 ft 284 kts 208°
2026-05-07 16:02 59.41749 17.58972 10679 ft 286 kts 214°
2026-05-07 16:03 59.40115 17.56830 11369 ft 288 kts 216°
2026-05-07 16:03 59.38460 17.54583 12039 ft 290 kts 217°
2026-05-07 16:03 59.36804 17.52302 12705 ft 291 kts 217°
2026-05-07 16:03 59.35142 17.50006 13347 ft 293 kts 217°
2026-05-07 16:04 59.33471 17.47711 13962 ft 296 kts 217°
2026-05-07 16:04 59.31765 17.45385 14558 ft 299 kts 217°
2026-05-07 16:04 59.30049 17.43063 15149 ft 301 kts 217°
2026-05-07 16:04 59.28318 17.40728 15728 ft 304 kts 217°
2026-05-07 16:05 59.26571 17.38374 16299 ft 306 kts 217°
2026-05-07 16:05 59.24810 17.36008 16852 ft 308 kts 217°
2026-05-07 16:05 59.23034 17.33626 17394 ft 311 kts 217°
2026-05-07 16:05 59.21209 17.31177 17567 ft 326 kts 217°
2026-05-07 16:06 59.19290 17.28602 17699 ft 342 kts 217°
2026-05-07 16:06 59.17287 17.25912 17829 ft 357 kts 217°
2026-05-07 16:06 59.15196 17.23109 17965 ft 371 kts 217°
2026-05-07 16:06 59.13041 17.20234 18329 ft 378 kts 217°
2026-05-07 16:07 59.10886 17.17361 18810 ft 382 kts 217°
2026-05-07 16:07 59.08653 17.14389 19334 ft 385 kts 217°
2026-05-07 16:07 59.06460 17.11477 19862 ft 388 kts 217°
2026-05-07 16:07 59.04221 17.08510 20362 ft 391 kts 217°
2026-05-07 16:08 59.01969 17.05533 20842 ft 393 kts 216°
2026-05-07 16:08 58.99694 17.02536 21289 ft 396 kts 217°
2026-05-07 16:08 58.97412 16.99530 21720 ft 399 kts 217°
2026-05-07 16:08 58.95104 16.96491 22131 ft 401 kts 216°
2026-05-07 16:09 58.92791 16.93446 22522 ft 403 kts 217°
2026-05-07 16:09 58.90459 16.90383 22906 ft 406 kts 217°
2026-05-07 16:09 58.88117 16.87309 23291 ft 408 kts 217°
2026-05-07 16:09 58.85757 16.84217 23660 ft 411 kts 216°
2026-05-07 16:10 58.83382 16.81111 24022 ft 413 kts 217°
2026-05-07 16:10 58.80998 16.77996 24383 ft 415 kts 217°
2026-05-07 16:10 58.78596 16.74864 24710 ft 418 kts 216°
2026-05-07 16:10 58.76214 16.71770 25027 ft 420 kts 216°
2026-05-07 16:11 58.73748 16.68575 25336 ft 422 kts 216°
2026-05-07 16:11 58.71337 16.65457 25648 ft 424 kts 216°
2026-05-07 16:11 58.68880 16.62278 25954 ft 426 kts 216°
2026-05-07 16:11 58.66416 16.59092 26263 ft 428 kts 216°
2026-05-07 16:12 58.63931 16.55891 26562 ft 431 kts 216°
2026-05-07 16:12 58.61434 16.52672 26869 ft 433 kts 217°
2026-05-07 16:12 58.59064 16.49126 27167 ft 433 kts 221°
2026-05-07 16:12 58.56731 16.45476 27569 ft 432 kts 221°
2026-05-07 16:13 58.55188 16.43072 27839 ft 431 kts 221°
2026-05-07 16:13 58.52856 16.39453 28239 ft 431 kts 221°
2026-05-07 16:13 58.50528 16.35844 28618 ft 431 kts 221°
2026-05-07 16:13 58.48201 16.32243 29004 ft 430 kts 221°
2026-05-07 16:14 58.45877 16.28648 29376 ft 430 kts 221°
2026-05-07 16:14 58.43557 16.25061 29755 ft 429 kts 221°
2026-05-07 16:14 58.41237 16.21481 30125 ft 429 kts 221°
2026-05-07 16:14 58.38916 16.17910 30492 ft 428 kts 221°
2026-05-07 16:15 58.36598 16.14355 30855 ft 428 kts 221°
2026-05-07 16:15 58.34278 16.10803 31219 ft 427 kts 221°
2026-05-07 16:15 58.31966 16.07268 31589 ft 427 kts 221°
2026-05-07 16:15 58.29650 16.03731 31949 ft 427 kts 221°
2026-05-07 16:16 58.27332 16.00193 32312 ft 426 kts 221°
2026-05-07 16:16 58.25026 15.96678 32663 ft 425 kts 221°
2026-05-07 16:16 58.22719 15.93172 33007 ft 425 kts 221°
2026-05-07 16:16 58.20413 15.89668 33348 ft 424 kts 221°
2026-05-07 16:17 58.18109 15.86177 33693 ft 424 kts 221°
2026-05-07 16:17 58.15803 15.82693 33995 ft 424 kts 221°
2026-05-07 16:17 58.13491 15.79207 34077 ft 427 kts 221°
2026-05-07 16:18 58.08774 15.72104 34092 ft 438 kts 221°
2026-05-07 16:18 58.04000 15.64953 34088 ft 441 kts 220°
2026-05-07 16:19 57.99186 15.57771 34085 ft 442 kts 219°
2026-05-07 16:19 57.94027 15.51429 34080 ft 443 kts 214°
2026-05-07 16:20 57.88799 15.45253 34081 ft 444 kts 214°
2026-05-07 16:20 57.83566 15.39103 34084 ft 444 kts 214°
2026-05-07 16:21 57.78329 15.32954 34088 ft 444 kts 214°
2026-05-07 16:21 57.73088 15.26820 34092 ft 444 kts 214°
2026-05-07 16:22 57.67838 15.20688 34093 ft 445 kts 214°
2026-05-07 16:22 57.62622 15.14617 34086 ft 445 kts 214°
2026-05-07 16:23 57.57360 15.08517 34087 ft 445 kts 214°
2026-05-07 16:23 57.52101 15.02442 34085 ft 445 kts 214°
2026-05-07 16:24 57.46831 14.96365 34085 ft 445 kts 213°
2026-05-07 16:24 57.41556 14.90305 34084 ft 446 kts 213°
2026-05-07 16:25 57.36269 14.84271 34081 ft 446 kts 213°
2026-05-07 16:25 57.31021 14.78294 34079 ft 446 kts 213°
2026-05-07 16:26 57.25732 14.72288 34079 ft 446 kts 213°
2026-05-07 16:26 57.20427 14.66282 34077 ft 446 kts 213°
2026-05-07 16:27 57.15125 14.60310 34068 ft 446 kts 213°
2026-05-07 16:27 57.09827 14.54354 34060 ft 446 kts 213°
2026-05-07 16:28 57.04514 14.48407 34060 ft 447 kts 213°
2026-05-07 16:28 56.99198 14.42485 34057 ft 447 kts 213°
2026-05-07 16:29 56.93909 14.36606 34056 ft 447 kts 213°
2026-05-07 16:29 56.88581 14.30681 34055 ft 448 kts 213°
2026-05-07 16:30 56.83253 14.24774 34055 ft 448 kts 212°
2026-05-07 16:30 56.77914 14.18893 34058 ft 448 kts 212°
2026-05-07 16:31 56.72566 14.13024 34059 ft 448 kts 212°
2026-05-07 16:31 56.67249 14.07217 34060 ft 448 kts 212°
2026-05-07 16:32 56.61886 14.01372 34066 ft 449 kts 212°
2026-05-07 16:32 56.56517 13.95545 34072 ft 450 kts 212°
2026-05-07 16:33 56.51142 13.89713 34077 ft 450 kts 212°
2026-05-07 16:33 56.45755 13.83897 34084 ft 451 kts 212°
2026-05-07 16:34 56.40359 13.78096 34097 ft 451 kts 211°
2026-05-07 16:34 56.34961 13.72312 34102 ft 451 kts 211°
2026-05-07 16:35 56.29555 13.66532 34104 ft 451 kts 211°
2026-05-07 16:35 56.24143 13.60768 34107 ft 452 kts 211°
2026-05-07 16:36 56.18770 13.55056 34109 ft 452 kts 211°
2026-05-07 16:36 56.13352 13.49328 34112 ft 452 kts 211°
2026-05-07 16:37 56.07932 13.43611 34116 ft 452 kts 211°
2026-05-07 16:37 56.02504 13.37907 34122 ft 452 kts 211°
2026-05-07 16:38 55.97070 13.32207 34127 ft 453 kts 211°
2026-05-07 16:38 55.91634 13.26533 34126 ft 453 kts 211°
2026-05-07 16:39 55.86202 13.20880 34128 ft 452 kts 211°
2026-05-07 16:39 55.80763 13.15243 34129 ft 452 kts 211°
2026-05-07 16:40 55.75327 13.09621 34132 ft 452 kts 211°
2026-05-07 16:40 55.69885 13.03999 34133 ft 452 kts 211°
2026-05-07 16:41 55.64478 12.98450 34136 ft 452 kts 211°
2026-05-07 16:41 55.59029 12.92870 34138 ft 452 kts 211°
2026-05-07 16:42 55.53583 12.87300 34141 ft 452 kts 211°
2026-05-07 16:42 55.48140 12.81753 34143 ft 452 kts 210°
2026-05-07 16:43 55.42690 12.76226 34145 ft 451 kts 210°
2026-05-07 16:43 55.37241 12.70723 34143 ft 451 kts 210°
2026-05-07 16:44 55.31821 12.65267 34141 ft 451 kts 210°
2026-05-07 16:44 55.26368 12.59798 34144 ft 451 kts 210°
2026-05-07 16:45 55.20913 12.54353 34147 ft 451 kts 210°
2026-05-07 16:45 55.15451 12.48903 34150 ft 451 kts 210°
2026-05-07 16:46 55.09999 12.43457 34151 ft 451 kts 210°
2026-05-07 16:46 55.04542 12.38037 34151 ft 451 kts 210°
2026-05-07 16:47 54.98995 12.32556 34147 ft 451 kts 210°
2026-05-07 16:47 54.93605 12.27253 34151 ft 451 kts 210°
2026-05-07 16:48 54.88177 12.21919 34147 ft 451 kts 210°
2026-05-07 16:48 54.82708 12.16562 34145 ft 451 kts 210°
2026-05-07 16:49 54.77237 12.11224 34142 ft 451 kts 210°
2026-05-07 16:49 54.71763 12.05888 34142 ft 451 kts 210°
2026-05-07 16:50 54.66302 12.00586 34137 ft 451 kts 210°
2026-05-07 16:50 54.60826 11.95300 34134 ft 451 kts 209°
2026-05-07 16:51 54.55344 11.90019 34133 ft 451 kts 209°
2026-05-07 16:51 54.49864 11.84753 34134 ft 451 kts 209°
2026-05-07 16:52 54.44417 11.79535 34131 ft 451 kts 209°
2026-05-07 16:52 54.38911 11.74377 34134 ft 450 kts 208°
2026-05-07 16:53 54.33389 11.69316 34138 ft 449 kts 208°
2026-05-07 16:53 54.27885 11.64265 34138 ft 448 kts 208°
2026-05-07 16:54 54.22393 11.59229 34134 ft 448 kts 208°
2026-05-07 16:54 54.16887 11.54199 34133 ft 448 kts 208°
2026-05-07 16:55 54.11387 11.49187 34133 ft 448 kts 208°
2026-05-07 16:55 54.05874 11.44159 34130 ft 449 kts 208°
2026-05-07 16:56 54.00399 11.39188 34130 ft 449 kts 208°
2026-05-07 16:56 53.92115 11.31728 34133 ft 449 kts 208°
2026-05-07 16:57 53.86601 11.26773 34131 ft 448 kts 208°
2026-05-07 16:57 53.81091 11.21824 34127 ft 448 kts 208°
2026-05-07 16:58 53.75579 11.16888 34126 ft 448 kts 208°
2026-05-07 16:58 53.70073 11.11968 34123 ft 448 kts 208°
2026-05-07 16:59 53.64558 11.07063 34119 ft 448 kts 207°
2026-05-07 16:59 53.59071 11.02218 34120 ft 448 kts 207°
2026-05-07 17:00 53.53555 10.97335 34117 ft 448 kts 208°
2026-05-07 17:00 53.48034 10.92458 34117 ft 448 kts 207°
2026-05-07 17:01 53.42506 10.87599 34118 ft 449 kts 207°
2026-05-07 17:01 53.36969 10.82759 34118 ft 449 kts 207°
2026-05-07 17:02 53.32365 10.78740 34118 ft 449 kts 207°
2026-05-07 17:02 53.26823 10.73911 34115 ft 449 kts 207°
2026-05-07 17:03 53.21266 10.69082 34114 ft 450 kts 207°
2026-05-07 17:03 53.15668 10.64238 34107 ft 450 kts 207°
2026-05-07 17:04 53.10148 10.59463 34100 ft 450 kts 207°
2026-05-07 17:04 53.04582 10.54671 34098 ft 450 kts 207°
2026-05-07 17:05 52.99048 10.49924 34097 ft 450 kts 207°
2026-05-07 17:05 52.93476 10.45163 34089 ft 451 kts 207°
2026-05-07 17:06 52.87902 10.40408 34097 ft 451 kts 207°
2026-05-07 17:06 52.82318 10.35659 34096 ft 451 kts 207°
2026-05-07 17:07 52.76740 10.30912 34089 ft 451 kts 207°
2026-05-07 17:07 52.71162 10.26185 34101 ft 451 kts 207°
2026-05-07 17:08 52.65581 10.21480 34105 ft 451 kts 207°
2026-05-07 17:08 52.59992 10.16773 34104 ft 451 kts 207°
2026-05-07 17:09 52.54438 10.12108 34103 ft 451 kts 207°
2026-05-07 17:09 52.48857 10.07433 34102 ft 450 kts 207°
2026-05-07 17:10 52.43267 10.02780 34099 ft 450 kts 207°
2026-05-07 17:10 52.37674 9.98138 34099 ft 450 kts 207°
2026-05-07 17:11 52.32080 9.93507 34100 ft 450 kts 207°
2026-05-07 17:11 52.26507 9.88888 34099 ft 450 kts 207°
2026-05-07 17:12 52.20914 9.84265 34101 ft 450 kts 207°
2026-05-07 17:12 52.15358 9.79701 34104 ft 450 kts 207°
2026-05-07 17:13 52.09739 9.75095 34105 ft 450 kts 207°
2026-05-07 17:13 52.04183 9.70549 34104 ft 450 kts 207°
2026-05-07 17:14 51.98595 9.65989 34102 ft 449 kts 207°
2026-05-07 17:14 51.92996 9.61439 34098 ft 449 kts 206°
2026-05-07 17:15 51.87404 9.56912 34098 ft 449 kts 206°
2026-05-07 17:15 51.81702 9.52793 34097 ft 449 kts 197°
2026-05-07 17:16 51.75666 9.50188 34097 ft 449 kts 195°
2026-05-07 17:16 51.69660 9.47620 34090 ft 450 kts 195°
2026-05-07 17:17 51.63609 9.45027 34093 ft 449 kts 195°
2026-05-07 17:17 51.57560 9.42448 34094 ft 450 kts 195°
2026-05-07 17:18 51.51507 9.39876 34086 ft 450 kts 195°
2026-05-07 17:18 51.45436 9.37304 34089 ft 450 kts 195°
2026-05-07 17:19 51.39408 9.34764 34086 ft 450 kts 195°
2026-05-07 17:19 51.33360 9.32235 34088 ft 450 kts 195°
2026-05-07 17:20 51.27290 9.29694 34086 ft 450 kts 195°
2026-05-07 17:20 51.21230 9.27137 34084 ft 450 kts 195°
2026-05-07 17:21 51.15168 9.24594 34090 ft 450 kts 195°
2026-05-07 17:21 51.09105 9.22076 34091 ft 450 kts 195°
2026-05-07 17:22 51.03043 9.19568 34090 ft 450 kts 195°
2026-05-07 17:22 50.96971 9.17046 34092 ft 451 kts 195°
2026-05-07 17:23 50.90945 9.14550 34093 ft 450 kts 195°
2026-05-07 17:23 50.84879 9.12048 34092 ft 450 kts 195°
2026-05-07 17:24 50.78821 9.09561 34085 ft 450 kts 195°
2026-05-07 17:24 50.72749 9.07084 34086 ft 450 kts 195°
2026-05-07 17:25 50.66681 9.04600 34084 ft 450 kts 195°
2026-05-07 17:25 50.60599 9.02285 34085 ft 450 kts 192°
2026-05-07 17:26 50.54449 9.00415 34080 ft 450 kts 191°
2026-05-07 17:26 50.48283 8.98651 34074 ft 450 kts 191°
2026-05-07 17:27 50.42135 8.96804 34070 ft 450 kts 192°
2026-05-07 17:27 50.36029 8.94904 34066 ft 450 kts 192°
2026-05-07 17:28 50.29845 8.92980 34067 ft 450 kts 192°